This is the latest recevied weather packets stored in our database for station/object KK4WXG. If no packets are shown the sender has not sent any weather packets the latest 10 day(s).
| Time | Temp. | Humidity | Pressure | Rain* | Wind** | Luminosity | Snow |
|---|---|---|---|---|---|---|---|
| 1778071226 | 15.56° C | 93% | 1008.9 hPa | 1.78 mm | - | 50 W/m² | - |
| 1778070924 | 15.56° C | 93% | 1008.8 hPa | 1.27 mm | - | 51 W/m² | - |
| 1778070622 | 15.56° C | 93% | 1009 hPa | 0.51 mm | - | 44 W/m² | - |
| 1778070318 | 15.56° C | 93% | 1009.1 hPa | 1.27 mm | - | 52 W/m² | - |
| 1778070016 | 15.56° C | 93% | 1008.9 hPa | 1.27 mm | - | 61 W/m² | - |
| 1778069714 | 15.56° C | 92% | 1008.8 hPa | 1.78 mm | - | 41 W/m² | - |
| 1778069410 | 15.56° C | 92% | 1008.9 hPa | 3.05 mm | - | 35 W/m² | - |
| 1778069108 | 15.56° C | 92% | 1009.1 hPa | 3.05 mm | - | 39 W/m² | - |
| 1778068805 | 15.56° C | 91% | 1009.1 hPa | 1.78 mm | - | 28 W/m² | - |
| 1778068503 | 15.56° C | 90% | 1009.3 hPa | 1.78 mm | - | 21 W/m² | - |
| 1778068201 | 15.56° C | 90% | 1009.3 hPa | 1.78 mm | - | 21 W/m² | - |
| 1778067898 | 15.56° C | 89% | 1009.3 hPa | 1.27 mm | - | 21 W/m² | - |
| 1778067596 | 15.56° C | 88% | 1009.3 hPa | 2.29 mm | - | 15 W/m² | - |
| 1778067294 | 16.11° C | 87% | 1009.2 hPa | 3.05 mm | - | 11 W/m² | - |
| 1778066990 | 16.11° C | 87% | 1009.5 hPa | 1.78 mm | - | 13 W/m² | - |
| 1778066688 | 16.11° C | 86% | 1009.1 hPa | 1.27 mm | - | 10 W/m² | - |
| 1778066385 | 16.67° C | 84% | 1009.3 hPa | 1.78 mm | - | 11 W/m² | - |
| 1778066083 | 16.67° C | 82% | 1009.2 hPa | 1.78 mm | - | 17 W/m² | - |
| 1778065780 | 16.67° C | 81% | 1009.2 hPa | 0.51 mm | - | 19 W/m² | - |
| 1778065478 | 17.22° C | 79% | 1008.9 hPa | 1.27 mm | - | 11 W/m² | - |
| 1778065174 | 17.22° C | 76% | 1008.8 hPa | 0.51 mm | - | 10 W/m² | - |
| 1778064870 | 17.22° C | 76% | 1008.9 hPa | 0 mm | - | 5 W/m² | - |
| 1778064567 | 17.22° C | 76% | 1008.8 hPa | 0 mm | - | 7 W/m² | - |
| 1778064266 | 17.78° C | 74% | 1008.8 hPa | 0 mm | - | 6 W/m² | - |
| 1778063964 | 17.78° C | 74% | 1008.7 hPa | 0 mm | - | 10 W/m² | - |
* Rain latest hour (hover to see other rain measurements)
** Current wind speed in m/s (hover to see current wind gust speed)